This is the latest recevied weather packets stored in our database for station/object W0VI. If no packets are shown the sender has not sent any weather packets the latest 10 day(s).
| Time | Temp. | Humidity | Pressure | Rain* | Wind** | Luminosity | Snow |
|---|---|---|---|---|---|---|---|
| 1777115083 | 7.78° C | 56% | 1016 hPa | 0 mm | - | 0 W/m² | - |
| 1777114780 | 7.78° C | 56% | 1015.7 hPa | 0 mm | - | 0 W/m² | - |
| 1777114476 | 7.78° C | 56% | 1015.9 hPa | 0 mm | - | 0 W/m² | - |
| 1777114171 | 7.78° C | 55% | 1015.7 hPa | 0 mm | - | 0 W/m² | - |
| 1777113867 | 7.78° C | 56% | 1015.7 hPa | 0 mm | - | 0 W/m² | - |
| 1777113566 | 7.78° C | 57% | 1015.8 hPa | 0 mm | - | 0 W/m² | - |
| 1777113261 | 7.78° C | 56% | 1015.3 hPa | 0 mm | - | 0 W/m² | - |
| 1777112955 | 7.78° C | 58% | 1015.2 hPa | 0 mm | - | 0 W/m² | - |
| 1777112648 | 7.78° C | 56% | 1014.9 hPa | 0 mm | - | 0 W/m² | - |
| 1777112343 | 7.78° C | 57% | 1015 hPa | 0 mm | - | 0 W/m² | - |
| 1777112041 | 7.78° C | 58% | 1015.4 hPa | 0 mm | - | 0 W/m² | - |
| 1777111737 | 7.78° C | 58% | 1015.4 hPa | 0 mm | - | 0 W/m² | - |
| 1777111434 | 7.22° C | 58% | 1015.1 hPa | 0 mm | - | 0 W/m² | - |
| 1777111129 | 7.22° C | 59% | 1015 hPa | 0 mm | - | 0 W/m² | - |
| 1777110826 | 7.22° C | 59% | 1015.2 hPa | 0 mm | - | 0 W/m² | - |
| 1777110522 | 7.22° C | 59% | 1014.8 hPa | 0 mm | - | 0 W/m² | - |
| 1777110217 | 7.22° C | 58% | 1014.9 hPa | 0 mm | - | 0 W/m² | - |
| 1777109914 | 7.78° C | 56% | 1014.8 hPa | 0 mm | - | 0 W/m² | - |
| 1777109609 | 7.78° C | 55% | 1014.9 hPa | 0 mm | - | 0 W/m² | - |
| 1777109306 | 7.78° C | 55% | 1014.7 hPa | 0 mm | - | 0 W/m² | - |
| 1777109001 | 7.78° C | 55% | 1015.1 hPa | 0 mm | - | 0 W/m² | - |
| 1777108696 | 7.78° C | 55% | 1014.9 hPa | 0 mm | - | 0 W/m² | - |
| 1777108394 | 7.78° C | 54% | 1014.9 hPa | 0 mm | - | 0 W/m² | - |
| 1777108089 | 7.78° C | 55% | 1014.6 hPa | 0 mm | - | 0 W/m² | - |
| 1777107784 | 7.22° C | 58% | 1014.6 hPa | 0 mm | - | 0 W/m² | - |
* Rain latest hour (hover to see other rain measurements)
** Current wind speed in m/s (hover to see current wind gust speed)